Weather History for KIJD - May, 2013

Change the Weather History Date:

Wednesday, May 22, 2013

  Actual Average Record
Temperature  
Mean Temperature 66 °F -  
Max Temperature 79 °F 71 °F 88 °F (1959)
Min Temperature 53 °F 46 °F 32 °F (1957)
Growing Degree Days 16 (Base 50)    
Moisture  
Dew Point 58 °F    
Average Humidity 88    
Maximum Humidity 100    
Minimum Humidity 68    
Precipitation  
Precipitation 0.10 in - - ()
Sea Level Pressure  
Sea Level Pressure 29.92 in    
Wind  
Wind Speed 6 mph (SSE)    
Max Wind Speed 14 mph    
Max Gust Speed 22 mph    
Visibility 7 miles    
Events Rain , Thunderstorm    
Averages and records for this station are not official NWS values.
T = Trace of Precipitation, MM = Missing Value Source: NWS Daily Summary

Daily Weather History Graph

Daily Weather History Graph

Search for Another Location

Airport or City:

Trip Planner

Search our weather history database for the weather conditions in past years. The results will help you decide how hot, cold, wet, or windy it might be!

Date:

Astronomy

May. 22, 2013 Rise Set
Actual Time 5:22 AM EDT 8:08 PM EDT
Civil Twilight 4:50 AM EDT 8:41 PM EDT
Nautical Twilight 4:09 AM EDT 9:22 PM EDT
Astronomical Twilight 3:22 AM EDT 10:09 PM EDT
Moon 5:25 PM EDT (5/22) 3:27 AM EDT (5/22)
Length of Visible Light 15h 51m
Length of Day
14h 46m
Waxing Gibbous, 91% of the Moon is Illuminated
May 22
Waxing Gibbous
May 25
Full
May 31
Last Quarter
Jun 8
New
Jun 16
First Quarter

Hourly Weather History & Observations

Time (EDT) Temp. Dew Point Humidity Pressure Visibility Wind Dir Wind Speed Gust Speed Precip Events Conditions
12:52 AM 54.0 °F 53.1 °F 97% 29.98 in 3.0 mi NNE 13.8 mph 21.9 mph 0.00 in Rain Light Rain
1:49 AM 53.6 °F 50.0 °F 88% 29.96 in 10.0 mi ENE 9.2 mph - 0.00 in   Overcast
1:52 AM 53.1 °F 50.0 °F 89% 29.95 in 10.0 mi ENE 12.7 mph - 0.00 in   Overcast
2:52 AM 53.1 °F 48.9 °F 86% 29.94 in 10.0 mi Calm Calm - N/A   Overcast
3:52 AM 53.1 °F 51.1 °F 93% 29.98 in 5.0 mi NNE 5.8 mph - 0.00 in Rain Light Rain
4:04 AM 53.6 °F 51.8 °F 94% 29.97 in 10.0 mi Calm Calm - 0.00 in   Overcast
4:25 AM 53.6 °F 51.8 °F 94% 29.94 in 10.0 mi Calm Calm - 0.00 in   Overcast
4:52 AM 54.0 °F 51.1 °F 90% 29.94 in 10.0 mi Calm Calm - 0.00 in   Mostly Cloudy
5:26 AM 53.6 °F 51.8 °F 94% 29.94 in 10.0 mi SSE 3.5 mph - N/A   Overcast
5:49 AM 53.6 °F 51.8 °F 94% 29.93 in 8.0 mi SSE 5.8 mph - 0.01 in Rain , Thunderstorm Rain
5:52 AM 53.1 °F 51.1 °F 93% 29.96 in 7.0 mi Variable 5.8 mph - 0.02 in Rain , Thunderstorm Rain
6:05 AM 53.6 °F 51.8 °F 94% 29.96 in 2.5 mi Calm Calm - 0.05 in Rain Rain
6:19 AM 53.6 °F 51.8 °F 94% 29.92 in 6.0 mi Variable 3.5 mph - 0.08 in Rain Light Rain
6:48 AM 53.6 °F 51.8 °F 94% 29.95 in 10.0 mi Calm Calm - 0.08 in   Mostly Cloudy
6:52 AM 54.0 °F 52.0 °F 93% 29.94 in 10.0 mi Calm Calm - 0.08 in   Mostly Cloudy
7:52 AM 55.0 °F 53.1 °F 93% 29.94 in 10.0 mi South 6.9 mph - N/A   Overcast
8:45 AM 55.4 °F 55.4 °F 100% 29.93 in 8.0 mi SSW 5.8 mph - N/A   Overcast
8:52 AM 55.9 °F 55.0 °F 97% 29.94 in 8.0 mi South 6.9 mph - N/A   Overcast
9:52 AM 59.0 °F 57.0 °F 93% 29.94 in 6.0 mi Calm Calm - N/A   Overcast
10:52 AM 62.1 °F 59.0 °F 90% 29.94 in 7.0 mi South 3.5 mph - N/A   Overcast
11:52 AM 64.0 °F 60.1 °F 87% 29.94 in 5.0 mi South 3.5 mph - N/A   Overcast
12:52 PM 66.0 °F 62.1 °F 87% 29.93 in 7.0 mi Calm Calm - N/A   Overcast
1:13 PM 68.0 °F 62.6 °F 83% 29.93 in 7.0 mi South 3.5 mph - N/A   Overcast
1:52 PM 70.0 °F 63.0 °F 78% 29.90 in 7.0 mi South 4.6 mph - N/A   Overcast
2:24 PM 71.6 °F 64.4 °F 78% 29.89 in 7.0 mi Variable 4.6 mph - N/A   Unknown
2:52 PM 73.9 °F 64.9 °F 73% 29.88 in 7.0 mi SSE 5.8 mph - N/A   Unknown
3:02 PM 75.2 °F 66.2 °F 73% 29.89 in 7.0 mi South 6.9 mph - N/A   Mostly Cloudy
3:52 PM 75.9 °F 66.9 °F 74% 29.88 in 8.0 mi SW 3.5 mph - N/A   Scattered Clouds
4:52 PM 78.1 °F 66.9 °F 68% 29.86 in 9.0 mi South 4.6 mph - N/A   Partly Cloudy
5:52 PM 77.0 °F 68.0 °F 74% 29.84 in 9.0 mi South 9.2 mph - N/A   Clear
6:52 PM 73.9 °F 66.0 °F 76% 29.87 in 7.0 mi South 9.2 mph - N/A   Partly Cloudy
7:06 PM 71.6 °F 66.2 °F 83% 29.88 in 7.0 mi SSE 8.1 mph - N/A   Mostly Cloudy
7:28 PM 71.6 °F 64.4 °F 78% 29.90 in 6.0 mi South 8.1 mph - N/A   Haze
7:52 PM 70.0 °F 64.9 °F 84% 29.89 in 6.0 mi South 5.8 mph - N/A   Haze
8:52 PM 66.9 °F 63.0 °F 87% 29.90 in 7.0 mi SSE 4.6 mph - N/A   Overcast
9:09 PM 66.2 °F 62.6 °F 88% 29.91 in 6.0 mi SSE 3.5 mph - N/A   Overcast
9:52 PM 66.0 °F 64.0 °F 93% 29.91 in 4.0 mi SSE 4.6 mph - N/A   Overcast
10:37 PM 64.4 °F 62.6 °F 94% 29.93 in 5.0 mi SSE 4.6 mph - N/A   Overcast
10:52 PM 64.9 °F 63.0 °F 93% 29.93 in 5.0 mi South 4.6 mph - N/A   Overcast
11:34 PM 64.4 °F 62.6 °F 94% 29.91 in 2.5 mi SSE 3.5 mph - N/A   Overcast
11:52 PM 64.0 °F 63.0 °F 96% 29.91 in 1.8 mi SSE 4.6 mph - N/A   Overcast